STARLINK-5301 (55270 NORAD) Tracking and Keplerian Element Data

This shows tracking and keplerian element data for the satellite.

Feedback or suggestion? Click here.




ElementValue
Catalog55270
NameSTARLINK-5301
Epoch Orbit1705
Epoch Day127.12101807
Epoch Year2023
RAAN140.7154
Inclination69.9982
Eccentricity0.0003316
Argument of Perigee268.9007
Mean Anonmoly91.1772
Mean Motion14.99140679
Decay Rate7.59E-06
L11 55270U 23010B 23127.12101807 .00000759 00000+0 69994-4 0 9991
L22 55270 69.9982 140.7154 0003316 268.9007 91.1772 14.99140679 17051



Live tracking and technical data element details for STARLINK-5301 (NORAD 55270). STARLINK-5301 can be tracked NOW for your location showing map with azimuth and elevation plus other details from your city location.







IsCatalogInMostPopularTable: catalog: 55270, numindb: 1
Update: records affected: 1



GetName: 55270 STARLINK-5301

Hit Count: updated at: Mon, 05 Jun 2023 20:13:52 GMT